Miscellaneous Local Product
Issued by NWS Hastings, NE

Home | Current Version | Previous Version | Graphics & Text | Print | Product List | Glossary On
Versions: 1 2 3 4 5 6 7 8 9 10 11 12 13 14 15 16 17 18 19 20 21 22 23 24 25 26 27 28 29 30 31 32 33 34 35 36 37 38 39 40 41 42 43 44 45 46 47 48 49 50
000
AXUS43 KGID 191402
MISGRI

GID CWA HOURLY WEATHER ROUNDUP
NATIONAL WEATHER SERVICE HASTINGS NE
900 AM CDT TUE AUG 19 2014

NOTE: "FAIR" INDICATES FEW OR NO CLOUDS BELOW 12,000 FEET WITH NO
SIGNIFICANT WEATHER AND/OR OBSTRUCTIONS TO VISIBILITY.

...SOUTH CENTRAL NEBRASKA...

CITY           SKY/WX    TMP DP  RH WIND       PRES   REMARKS
GRAND ISLAND   SUNNY     74  65  73 CALM      29.89R
HASTINGS       SUNNY     74  65  73 NE3       29.88S
KEARNEY        SUNNY     72  64  78 CALM      29.89S
ORD            SUNNY     68  63  84 CALM      29.87F
AURORA         SUNNY     73  69  88 CALM      29.88S
LEXINGTON      SUNNY     70  68  94 SE3       29.89F
HOLDREGE       SUNNY     72  69  92 CALM      29.89S
HEBRON         SUNNY     73  67  82 CALM      29.87F

...NEBRASKA PANHANDLE...

CITY           SKY/WX    TMP DP  RH WIND       PRES   REMARKS
CHADRON        SUNNY     72  56  57 VRB3      29.87F
ALLIANCE       MOSUNNY   64  56  75 SE8       29.92F
SCOTTSBLUFF    SUNNY     63  56  78 SE8       29.92F
SIDNEY         SUNNY     68  55  63 SE8       29.95F

...WESTERN AND NORTH CENTRAL NEBRASKA...

CITY           SKY/WX    TMP DP  RH WIND       PRES   REMARKS
VALENTINE      SUNNY     67  59  75 CALM      29.89S
AINSWORTH      SUNNY     67  61  80 CALM      29.89F
ONEILL         SUNNY     69  63  81 CALM      29.87S
BROKEN BOW     SUNNY     69  63  81 CALM      29.90S
IMPERIAL       SUNNY     68  58  70 CALM      29.92S
NORTH PLATTE   SUNNY     68  64  87 SE5       29.91R
MCCOOK         SUNNY     68  58  70 NE3       29.91S

...EASTERN NEBRASKA...

CITY           SKY/WX    TMP DP  RH WIND       PRES   REMARKS
NORFOLK        SUNNY     70  62  76 N3        29.84S
SO SIOUX CITY  SUNNY     71  63  75 NW5       29.83R
TEKAMAH        SUNNY     73  63  70 N3        29.83R
COLUMBUS       SUNNY     70  63  78 CALM      29.87R
ALBION         SUNNY     69  60  74 CALM      29.87S
OMAHA EPPLEY   MOSUNNY   75  62  64 N6        29.83R
OFFUTT AFB     SUNNY     75  73  92 W3        29.82R
MILLARD        SUNNY     75  64  67 W3        29.83S
LINCOLN        SUNNY     75  65  70 CALM      29.85S
NEBRASKA CITY  SUNNY     74  73  96 W5        29.84S
BEATRICE       SUNNY     74  71  89 W5        29.85S
FALLS CITY     SUNNY     77  69  76 W3        29.82S

...NORTHERN KANSAS...

CITY           SKY/WX    TMP DP  RH WIND       PRES   REMARKS
GOODLAND       PTSUNNY   69  57  65 SW9       29.92S
HILL CITY      SUNNY     72  61  68 E6        29.89R
NORTON         SUNNY     70  59  68 CALM      29.88F
PHILLIPSBURG   SUNNY     66  63  88 CALM      29.89R
SMITH CENTER   SUNNY     73  63  68 E3        29.89R
BELOIT         SUNNY     72  66  83 NE3       29.87R
HAYS           SUNNY     75  57  53 SW5       29.87S
RUSSELL        SUNNY     78  59  51 N5        29.85S
CONCORDIA      SUNNY     74  68  81 W3        29.87S
SALINA         SUNNY     76  64  66 N5        29.85S
TOPEKA         MOSUNNY   77  70  79 W3        29.84S



USA.gov is the U.S. government's official web portal to all federal, state and local government web resources and services.